DELTA 1 DEB

Satellite information

Favourite Embed

Satellite Type and Status

DEBRISIN ORBIT

Key statistics

Satellite DELTA 1 DEB at a glance.

Uptime

18041

Days in orbit

Revolutions

≈ 12.3

Per day

Orbit

SSO

Sun Synchronous Orbit

Inclination

103.9

Latest

Satellite identification and parameters

Extended collection of information and parameters for DELTA 1 DEB.

Object identification

Identified? True

Debris? True

Object name: DELTA 1 DEB

International designator: 1976-077FC

Object number (NORAD): 18540

Object ID (CCSDS): 18540

Country: UNITED STATES OF AMERICA (US)

Current information (Y/N): Y

RCS size: SMALL

Orbital parameters

Period: 116.612 minutes

Inclination: 103.9197 deg

SMA: 7906.585 km

Apoapsis: 1852.942 km

Periapsis: 1203.958 km

RAAN: 97.423 deg

Eccentricy: 0.04104076

Argument of periapsis: 312.0384 deg

Mean anomaly: 69.1527 deg

Mean motion: 12.34864629 rev/day

Mean motion (dot): 0.00011614 rev/day2

B* drag term: 0.070067403 1/REarth

Two-line elements (TLE)

Creation date: Dec. 18, 2025, 8:02 p.m.

Reference frame: TEME

Reference center: EARTH

Epoch: Dec. 18, 2025, 6:22 a.m. UTC

TLE line 0: 0 DELTA 1 DEB

TLE line 1: 1 18540U 76077FC 25352.26542174 .00011614 00000-0 70067-1 0 9997

TLE line 2: 2 18540 103.9197 97.4230 0410408 312.0384 69.1527 12.34864629592947

Live tracking on map

Real-time ground track for satellite DELTA 1 DEB.

In-orbit conjunctions

A list of the most updated potential collisions computed for object DELTA 1 DEB.

Target Orbit TCA Probability of collision Miss distance Type
COSMOS 1930 LEO 2025-08-02 09:19:44 0.000155795 466.0 (m) PAYLOAD

Associated space launch

Meteorological satellite using radiometric imaging

DELTA 1 DEB was lifted into orbit during the mission ‘Delta 2310 | NOAA 5’, on board a Delta 2310 space rocket.

The launch took place on July 29, 1976, 5:07 p.m. from Space Launch Complex 2W.

For more information about the launch, click the button.

Launch to space Delta 2310 | NOAA 5
Delta 2310 | NOAA 5

Agency: N/A

Status: Launch Successful

Launch date: July 29, 1976, 5:07 p.m. UTC

Rocket: Delta 2310

Launch pad: Space Launch Complex 2W

Location: Vandenberg SFB, CA, USA

...

Latest news about this satellite

There are no fresh news available about this satellite. Check back as we update our databases every day.


Newsletter sign-up

Weekly statistics, charts and insights to help you stay on top of the space industry.